Muskegon, MI

8:08 PM EDT on March 30, 2017 (GMT -0400)
Muskegon County

Weather History for KMKG - November, 2013

Change the Weather History Date:

Tuesday, November 26, 2013

  Actual Average Record
Temperature  
Mean Temperature 32 °F 36 °F  
Max Temperature 39 °F 42 °F 63 °F (1976)
Min Temperature 25 °F 31 °F 8 °F (1977)
Degree Days  
Heating Degree Days 33 29  
Month to date heating degree days 614 626  
Since 1 July heating degree days 1122 1249  
Cooling Degree Days 0 0  
Month to date cooling degree days 0 0  
Year to date cooling degree days 626 566  
Moisture  
Dew Point 22 °F    
Average Humidity 62    
Maximum Humidity 75    
Minimum Humidity 48    
Precipitation  
Precipitation T in 0.11 in 1.55 in (1981)
Month to date precipitation 3.19 2.94  
Year to date precipitation 40.86 30.52  
Snow  
Snow 0.20 in 0.40 in 4.00 in (1938)
Month to date snowfall 2.4 4.4  
Since 1 July snowfall 2.4 4.6  
Since 1 September snowfall 2.4 4.6  
Snow Depth 2.00 in    
Sea Level Pressure  
Sea Level Pressure 30.02 in    
Wind  
Wind Speed 11 mph (NW)    
Max Wind Speed 25 mph    
Max Gust Speed 31 mph    
Visibility 8 miles    
Events Snow    
T = Trace of Precipitation, MM = Missing Value Source: NWS Daily Summary

Daily Weather History Graph

Daily Weather History Graph

Search for Another Location

Airport or City:

Trip Planner

Search our weather history database for the weather conditions in past years. The results will help you decide how hot, cold, wet, or windy it might be!

Date:

Astronomy

Nov. 26, 2013 Rise Set
Actual Time 7:51 AM EST 5:12 PM EST
Civil Twilight 7:20 AM EST 5:44 PM EST
Nautical Twilight 6:44 AM EST 6:19 PM EST
Astronomical Twilight 6:10 AM EST 6:53 PM EST
Moon 12:44 AM EST (11/26) 1:28 PM EST (11/26)
Length of Visible Light 10h 24m
Length of Day
9h 21m
Last Quarter, 41% of the Moon is Illuminated
Nov 26
Last Quarter
Dec 2
New
Dec 9
First Quarter
Dec 17
Full
Dec 25
Last Quarter

Hourly Weather History & Observations

Time (EST) Temp. Windchill Dew Point Humidity Pressure Visibility Wind Dir Wind Speed Gust Speed Precip Events Conditions
12:55 AM 36.0 °F 28.0 °F 28.0 °F 73% 30.04 in 10.0 mi WSW 11.5 mph - N/A   Overcast
1:55 AM 37.0 °F 28.5 °F 28.9 °F 73% 30.02 in 10.0 mi WSW 13.8 mph 19.6 mph N/A   Overcast
2:55 AM 37.0 °F 30.4 °F 28.9 °F 73% 30.02 in 10.0 mi WSW 9.2 mph - N/A   Overcast
3:55 AM 37.0 °F 30.4 °F 28.9 °F 73% 30.03 in 10.0 mi WSW 9.2 mph - N/A   Overcast
4:55 AM 37.9 °F 32.1 °F 28.9 °F 70% 30.03 in 10.0 mi WSW 8.1 mph - N/A   Overcast
5:55 AM 39.0 °F 32.8 °F 21.0 °F 49% 30.01 in 10.0 mi West 9.2 mph - N/A   Overcast
6:55 AM 39.0 °F 32.8 °F 21.9 °F 50% 30.01 in 10.0 mi West 9.2 mph - N/A   Overcast
7:55 AM 37.9 °F 32.7 °F 21.9 °F 53% 30.01 in 10.0 mi WSW 6.9 mph - N/A   Overcast
8:55 AM 37.9 °F 32.7 °F 21.9 °F 53% 30.01 in 10.0 mi West 6.9 mph - N/A   Overcast
9:55 AM 37.9 °F 31.5 °F 25.0 °F 60% 30.00 in 9.0 mi West 9.2 mph 17.3 mph 0.00 in Snow Light Snow
10:55 AM 37.9 °F 30.5 °F 24.1 °F 57% 30.00 in 10.0 mi West 11.5 mph - 0.00 in   Overcast
11:55 AM 37.0 °F 30.4 °F 27.0 °F 67% 29.98 in 9.0 mi WNW 9.2 mph - 0.00 in Snow Light Snow
12:20 PM 35.6 °F 27.1 °F 28.4 °F 75% 29.98 in 5.0 mi NW 12.7 mph - 0.00 in Snow Light Snow
12:55 PM 34.0 °F 26.0 °F 25.0 °F 70% 30.01 in 9.0 mi WNW 10.4 mph - 0.00 in Snow Light Snow
1:55 PM 33.1 °F 23.4 °F 21.9 °F 64% 29.99 in 10.0 mi NW 13.8 mph 24.2 mph 0.00 in Snow Light Snow
2:18 PM 33.8 °F 23.2 °F 19.4 °F 56% 29.98 in 9.0 mi NNW 17.3 mph 23.0 mph 0.00 in Snow Light Snow
2:55 PM 32.0 °F 21.6 °F 19.0 °F 59% 30.00 in 10.0 mi NNW 15.0 mph - 0.00 in   Overcast
3:55 PM 30.9 °F 19.8 °F 19.0 °F 61% 30.01 in 2.0 mi NNW 16.1 mph 24.2 mph 0.00 in Snow Light Snow
4:05 PM 30.2 °F 19.3 °F 21.2 °F 69% 29.99 in 1.0 mi NW 15.0 mph - 0.00 in Snow Light Snow
4:12 PM 28.4 °F 19.7 °F 21.2 °F 74% 30.00 in 1.0 mi NNW 9.2 mph - 0.00 in Snow Light Snow
4:32 PM 28.4 °F 19.7 °F 21.2 °F 74% 30.00 in 6.0 mi NNW 9.2 mph - 0.00 in Snow Light Snow
4:55 PM 28.9 °F 19.2 °F 21.9 °F 75% 30.03 in 9.0 mi NNW 11.5 mph - 0.00 in Snow Light Snow
5:55 PM 30.0 °F 19.1 °F 18.0 °F 61% 30.04 in 10.0 mi NNW 15.0 mph 25.3 mph 0.00 in   Overcast
6:55 PM 28.9 °F 18.6 °F 12.9 °F 51% 30.04 in 10.0 mi NNW 12.7 mph - N/A   Overcast
7:55 PM 28.9 °F 18.6 °F 12.9 °F 51% 30.06 in 10.0 mi North 12.7 mph - N/A   Overcast
8:55 PM 28.9 °F 20.4 °F 14.0 °F 54% 30.06 in 10.0 mi North 9.2 mph - N/A   Overcast
9:55 PM 27.0 °F 16.1 °F 19.0 °F 72% 30.06 in 4.0 mi NNW 12.7 mph 21.9 mph 0.00 in Snow Light Snow
10:25 PM 26.6 °F 16.2 °F 19.4 °F 74% 30.04 in 5.0 mi NNW 11.5 mph - 0.00 in Snow Light Snow
10:36 PM 26.6 °F 18.2 °F 21.2 °F 80% 30.05 in 6.0 mi North 8.1 mph 17.3 mph 0.00 in Snow Light Snow
10:55 PM 27.0 °F 16.7 °F 19.0 °F 72% 30.08 in 10.0 mi North 11.5 mph - 0.00 in Snow Light Snow
11:28 PM 24.8 °F 10.7 °F 15.8 °F 69% 30.07 in 10.0 mi NNW 19.6 mph 27.6 mph 0.00 in   Overcast
11:55 PM 25.0 °F 11.3 °F 14.0 °F 63% 30.10 in 10.0 mi North 18.4 mph - 0.00 in   Overcast